Latest Coastal Weather Observations for Browse Island

IDW60701

Issued at 10:32 pm WST Monday 30 May 2016 (issued every 10 minutes, with the page automatically refreshed every 10 minutes)

About coastal observations | Map of coastal stations | Coastal observations for WA | Marine services | Other Formats
Station Details ID: 200784 Name: BROWSE ISLAND Lat: -14.11 Lon: 123.55 Height: 3.7 m
Data from the previous 72 hours. | See also: Recent months at Browse Island
Date/Time
WST
Temp

°C
Wind Pressure Rain
since 9am
mm
Weather Cloud Vis
km
Sea
Height
m
Swell
Dir
 
Speed
knots
Gust
knots
hPa Trend Height
m
Period
s
Dir
30/10:30pm 29.0 SSE 1 5 1013.0 - - - - - - - - -
30/10:00pm 28.9 SSE 4 - 1013.6 - - - - - - - - -
30/09:30pm 29.0 SSE 1 - 1013.0 - - - - - - - - -
30/09:00pm 28.9 SSE 1 - 1013.7 - - - - - - - - -
30/08:30pm 29.0 CALM 0 - 1013.0 - - - - - - - - -
30/08:00pm 28.9 CALM 0 - 1013.4 - - - - - - - - -
30/07:30pm 29.0 CALM 0 - 1013.0 - - - - - - - - -
30/07:00pm 28.8 CALM 0 - 1012.8 - - - - - - - - -
30/06:30pm 29.0 CALM 0 - 1012.0 - - - - - - - - -
30/06:00pm 28.9 CALM 0 - 1012.2 - - - - - - - - -
30/05:30pm 29.0 CALM 0 - 1012.0 - - - - - - - - -
30/05:00pm 29.6 CALM 0 - 1011.7 - - - - - - - - -
30/04:30pm 29.0 CALM 0 - 1011.0 - - - - - - - - -
30/04:00pm 29.4 CALM 0 - 1011.1 - - - - - - - - -
30/03:30pm 30.0 SSE 1 - 1011.0 - - - - - - - - -
30/03:00pm 30.1 ESE 2 - 1010.8 - - - - - - - - -
30/02:30pm 30.0 CALM 0 - 1010.0 - - - - - - - - -
30/02:00pm 30.0 W 1 - 1010.7 - - - - - - - - -
30/01:30pm 31.0 E 1 - 1010.0 - - - - - - - - -
30/01:00pm 29.6 E 2 - 1010.9 - - - - - - - - -
30/12:30pm 30.0 NNE 2 - 1011.0 - - - - - - - - -
30/12:00pm 30.1 SSE 1 - 1011.9 - - - - - - - - -
30/11:30am 31.0 NE 2 - 1012.0 - - - - - - - - -
30/11:00am 30.6 NE 1 - 1012.6 - - - - - - - - -
30/10:30am 31.0 NNE 1 - 1013.0 - - - - - - - - -
30/10:00am 29.5 NNW 1 - 1013.2 - - - - - - - - -
30/09:30am 30.0 CALM 0 - 1013.0 - - - - - - - - -
30/09:00am 29.9 CALM 0 - 1013.7 - - - - - - - - -
30/08:30am 30.0 NNE 1 - 1013.0 - - - - - - - - -
30/08:00am 29.2 CALM 0 - 1013.6 - - - - - - - - -
30/07:30am 29.0 CALM 0 - 1013.0 - - - - - - - - -
30/07:00am 29.0 CALM 0 - 1013.1 - - - - - - - - -
30/06:30am 29.0 CALM 0 - 1012.0 - - - - - - - - -
30/06:00am 28.2 CALM 0 - 1012.5 - - - - - - - - -
30/05:30am 28.0 CALM 0 - 1012.0 - - - - - - - - -
30/05:00am 28.4 NNW 3 - 1011.8 - - - - - - - - -
30/04:30am 28.0 NNW 4 - 1011.0 - - - - - - - - -
30/04:00am 28.3 NW 3 - 1011.4 - - - - - - - - -
30/03:30am 28.0 NW 4 - 1011.0 - - - - - - - - -
30/03:00am 28.4 NW 5 - 1011.5 - - - - - - - - -
30/02:30am 28.0 NW 5 - 1011.0 - - - - - - - - -
30/02:00am 28.5 NNW 6 - 1011.7 - - - - - - - - -
30/01:30am 29.0 NNW 5 - 1011.0 - - - - - - - - -
30/01:00am 28.6 NNW 6 - 1011.7 - - - - - - - - -
30/12:30am 29.0 NNW 7 - 1011.0 - - - - - - - - -
30/12:00am 28.8 NNW 6 - 1011.8 - - - - - - - - -
 
Date/Time
WST
Temp

°C
Wind Pressure Rain
since 9am
mm
Weather Cloud Vis
km
Sea
Height
m
Swell
Dir
 
Speed
knots
Gust
knots
hPa Trend Height
m
Period
s
Dir
29/11:30pm 29.0 N 5 - 1012.0 - - - - - - - - -
29/11:00pm 28.8 N 5 - 1012.1 - - - - - - - - -
29/10:30pm 29.0 NNE 1 - 1012.0 - - - - - - - - -
29/10:00pm 28.8 CALM 0 - 1012.2 - - - - - - - - -
29/09:30pm 29.0 E 2 - 1012.0 - - - - - - - - -
29/09:00pm 28.9 E 4 - 1012.3 - - - - - - - - -
29/08:30pm 29.0 E 5 - 1012.0 - - - - - - - - -
29/08:00pm 28.9 E 5 - 1011.8 - - - - - - - - -
29/07:30pm 29.0 SSE 5 - 1012.0 - - - - - - - - -
29/07:00pm 29.2 SSE 6 - 1011.8 - - - - - - - - -
29/06:30pm 29.0 SSE 6 - 1011.0 - - - - - - - - -
29/06:00pm 29.1 SSE 6 - 1011.2 - - - - - - - - -
29/05:30pm 29.0 SSE 7 - 1011.0 - - - - - - - - -
29/05:00pm 29.3 SSE 6 - 1011.0 - - - - - - - - -
29/04:30pm 29.0 SSE 6 - 1010.0 - - - - - - - - -
29/04:00pm 29.5 S 5 - 1010.5 - - - - - - - - -
29/03:30pm 29.0 S 6 - 1010.0 - - - - - - - - -
29/03:00pm 29.4 S 7 - 1010.2 - - - - - - - - -
29/02:30pm 29.0 S 7 - 1010.0 - - - - - - - - -
29/02:00pm 29.7 S 7 - 1010.3 - - - - - - - - -
29/01:30pm 30.0 S 6 - 1010.0 - - - - - - - - -
29/01:00pm 29.4 S 6 - 1010.9 - - - - - - - - -
29/12:30pm 30.0 S 5 - 1011.0 - - - - - - - - -
29/12:00pm 29.9 S 6 - 1011.8 - - - - - - - - -
29/11:30am 30.0 S 7 - 1012.0 - - - - - - - - -
29/11:00am 29.3 S 7 - 1012.6 - - - - - - - - -
29/10:30am 30.0 S 7 - 1013.0 - - - - - - - - -
29/10:00am 29.4 S 5 - 1013.3 - - - - - - - - -
29/09:30am 30.0 S 5 - 1013.0 - - - - - - - - -
29/09:00am 29.3 S 5 - 1013.6 - - - - - - - - -
29/08:30am 29.0 S 5 - 1013.0 - - - - - - - - -
29/08:00am 28.9 S 6 - 1013.6 - - - - - - - - -
29/07:30am 29.0 SSW 4 - 1013.0 - - - - - - - - -
29/07:00am 28.7 SW 4 - 1013.1 - - - - - - - - -
29/06:30am 29.0 SW 5 - 1013.0 - - - - - - - - -
29/06:00am 28.6 SW 4 - 1012.6 - - - - - - - - -
29/05:30am 29.0 WSW 4 - 1012.0 - - - - - - - - -
29/05:00am 28.5 WSW 5 - 1011.8 - - - - - - - - -
29/04:30am 29.0 WSW 5 - 1011.0 - - - - - - - - -
29/04:00am 28.7 WSW 4 - 1011.4 - - - - - - - - -
29/03:30am 29.0 W 3 - 1011.0 - - - - - - - - -
29/03:00am 28.6 CALM 0 - 1011.0 - - - - - - - - -
29/02:30am 29.0 WSW 1 - 1011.0 - - - - - - - - -
29/02:00am 28.6 WSW 1 - 1011.0 - - - - - - - - -
29/01:30am 29.0 CALM 0 - 1011.0 - - - - - - - - -
29/01:00am 28.5 CALM 0 - 1011.0 - - - - - - - - -
29/12:30am 29.0 CALM 0 - 1011.0 - - - - - - - - -
29/12:00am 28.6 SW 3 - 1011.4 - - - - - - - - -
 
Date/Time
WST
Temp

°C
Wind Pressure Rain
since 9am
mm
Weather Cloud Vis
km
Sea
Height
m
Swell
Dir
 
Speed
knots
Gust
knots
hPa Trend Height
m
Period
s
Dir
28/11:30pm 29.0 SW 4 - 1011.0 - - - - - - - - -
28/11:00pm 28.7 SSW 4 - 1011.7 - - - - - - - - -
28/10:30pm 29.0 CALM 0 - 1012.0 - - - - - - - - -
28/10:00pm 28.7 CALM 0 - 1012.2 - - - - - - - - -
28/09:30pm 29.0 CALM 0 - 1012.0 - - - - - - - - -
28/09:00pm 28.9 S 2 - 1012.3 - - - - - - - - -
28/08:30pm 29.0 CALM 0 - 1012.0 - - - - - - - - -
28/08:00pm 29.0 S 1 - 1012.2 - - - - - - - - -
28/07:30pm 29.0 CALM 0 - 1012.0 - - - - - - - - -
28/07:00pm 29.0 CALM 0 - 1011.8 - - - - - - - - -
28/06:30pm 29.0 CALM 0 - 1011.0 - - - - - - - - -
28/06:00pm 29.2 S 2 - 1011.2 - - - - - - - - -
28/05:30pm 29.0 CALM 0 - 1011.0 - - - - - - - - -
28/05:00pm 29.4 SSE 3 - 1010.9 - - - - - - - - -
28/04:30pm 30.0 SSE 3 - 1010.0 - - - - - - - - -
28/04:00pm 29.6 S 5 - 1010.4 - - - - - - - - -
28/03:30pm 30.0 S 6 - 1010.0 - - - - - - - - -
28/03:00pm 29.7 S 6 - 1010.4 - - - - - - - - -
28/02:30pm 30.0 S 5 - 1010.0 - - - - - - - - -
28/02:00pm 29.8 SSW 6 - 1010.8 - - - - - - - - -
28/01:30pm 30.0 S 7 - 1011.0 - - - - - - - - -
28/01:00pm 29.6 SSW 7 - 1011.2 - - - - - - - - -
28/12:30pm 30.0 SSW 8 - 1011.0 - - - - - - - - -
28/12:00pm 29.5 S 8 - 1012.0 - - - - - - - - -
28/11:30am 29.0 S 9 - 1012.0 - - - - - - - - -
28/11:00am 29.5 S 11 - 1012.8 - - - - - - - - -
28/10:30am 29.0 S 11 - 1013.0 - - - - - - - - -
28/10:00am 29.5 S 10 - 1013.6 - - - - - - - - -
28/09:30am 29.0 S 9 - 1014.0 - - - - - - - - -
28/09:00am 29.3 S 10 - 1013.9 - - - - - - - - -
28/08:30am 29.0 S 9 - 1014.0 - - - - - - - - -
28/08:00am 29.1 S 9 - 1014.0 - - - - - - - - -
28/07:30am 29.0 S 9 - 1013.0 - - - - - - - - -
28/07:00am 29.1 SSW 7 - 1013.6 - - - - - - - - -
28/06:30am 29.0 S 8 - 1013.0 - - - - - - - - -
28/06:00am 29.2 S 9 - 1013.1 - - - - - - - - -
28/05:30am 29.0 S 8 - 1013.0 - - - - - - - - -
28/05:00am 29.3 S 8 - 1012.9 - - - - - - - - -
28/04:30am 29.0 S 7 - 1013.0 - - - - - - - - -
28/04:00am 29.3 S 9 - 1012.8 - - - - - - - - -
28/03:30am 29.0 S 10 - 1012.0 - - - - - - - - -
28/03:00am 29.7 S 11 - 1012.8 - - - - - - - - -
28/02:30am 30.0 SSW 10 - 1013.0 - - - - - - - - -
28/02:00am 29.4 S 9 - 1012.8 - - - - - - - - -
28/01:30am 29.0 SSW 9 - 1013.0 - - - - - - - - -
28/01:00am 29.2 SSW 9 - 1012.9 - - - - - - - - -
28/12:30am 29.0 SSW 9 - 1013.0 - - - - - - - - -
28/12:00am 29.2 SSW 9 - 1013.1 - - - - - - - - -
 
Date/Time
WST
Temp

°C
Wind Pressure Rain
since 9am
mm
Weather Cloud Vis
km
Sea
Height
m
Swell
Dir
 
Speed
knots
Gust
knots
hPa Trend Height
m
Period
s
Dir
27/11:30pm 29.0 SSW 9 - 1013.0 - - - - - - - - -
27/11:00pm 29.2 SSW 8 - 1013.3 - - - - - - - - -

Other Formats:

Comma delimited format used in spreadsheet applications
http://www.bom.gov.au/fwo/IDW60701/IDW60701.94103.axf

JavaScript Object Notation format (JSON) in row-major order
http://www.bom.gov.au/fwo/IDW60701/IDW60701.94103.json